Content
SEND FEEDBACK

Daily
Averages
Monthly
Summary
United States of America

MIAMI, NEW MEXICO


Home > North America > United States > New Mexico
Elevation: 1879 meters     Latitude: 36 21N     Longitude: 104 46W

WEATHER
 
SELECT A DAY
Number of Records: 177,506;   Date Range: 10/2/07 - 11/27/14
 
SHARE

PRINT THIS DATA

[ ← Previous Day ]
WEATHER ALMANAC - 3 JANUARY, 2013
[ Next Day → ]
[ °F ]   °C
Weather ElementAverageHighLow
Temperature-26.7 °C-7.5 °C (3:55 pm)-35 °C (5:35 am)
Dewpoint-30.1 °C-13.9 °C (2:35 pm)-39.2 °C (5:35 am)
Humidity74.3 %86 % (7:15 pm)54 % (3:55 pm)
Barometer1023.4 hPa1025.1 hPa (8:55 am)1021.3 hPa (2:15 pm)
Wind Speed1.1 km/h13 km/h (2:55 pm)
Weather ElementAverage
Visibility15.9 km
Wind DirectionNNE (28.1 °)

Weather ElementTotal
Precipitation---
Heating Degree Days39.6 (Base 18.3)
Averaged from 53 records on 3 January, 2013
WEATHER CONDITIONS BREAKOUT
WIND DIRECTION BREAKOUT
WEATHER BY HOUR - 3 JANUARY, 2013
[ °F ]   °C
Local TimeTemperatureDewpointHumidityBarometerVisibilityWind DirectionWind SpeedGust SpeedPrecipitationEventsConditions
12:35 AM-28.8 °C-31.5 °C78 %1022 hPa16.1 kmCalmClear
12:55 AM-29.7 °C-33.1 °C73 %1022 hPa16.1 kmCalmClear
1:15 AM-30.4 °C-33.5 °C75 %1022.4 hPa16.1 kmCalmClear
1:35 AM-31.7 °C-34.6 °C76 %1022.7 hPa16.1 kmCalmClear
1:55 AM-30.9 °C-33.8 °C77 %1022.7 hPa16.1 kmCalmClear
2:15 AM-30.7 °C-33.9 °C74 %1022.7 hPa16.1 kmCalmClear
2:35 AM-30.6 °C-33.8 °C74 %1022.7 hPa16.1 kmCalmClear
2:55 AM-32.1 °C-35.3 °C74 %1023 hPa16.1 kmNorth (350°)5.6 km/hClear
3:15 AM-30.8 °C-34 °C74 %1023.4 hPa16.1 kmCalmClear
3:35 AM-30.9 °C-33.9 °C76 %1023.4 hPa16.1 kmSE (140°)7.4 km/hClear
3:55 AM-31.7 °C-34.5 °C77 %1023.4 hPa16.1 kmCalmClear
4:15 AM-31 °C-34 °C76 %1023.4 hPa16.1 kmCalmClear
4:35 AM-31.4 °C-34.2 °C77 %1023.4 hPa11.3 kmCalmClear
4:55 AM-30.8 °C-34 °C74 %1023.4 hPa16.1 kmCalmClear
5:15 AM-33.7 °C-37.2 °C72 %1023.4 hPa16.1 kmCalmClear
5:35 AM-35 °C-39.2 °C67 %1023.7 hPa16.1 kmCalmClear
5:55 AM-33 °C-36.2 °C74 %1024 hPa16.1 kmCalmClear
6:15 AM-33.7 °C-37.3 °C71 %1024 hPa16.1 kmCalmClear
6:35 AM-34.3 °C-37.8 °C72 %1024.4 hPa16.1 kmCalmClear
6:55 AM-34.5 °C-38.3 °C70 %1024.4 hPa16.1 kmCalmClear
7:15 AM-35 °C-38.9 °C69 %1024.4 hPa16.1 kmCalmClear
7:35 AM-32.8 °C-36 °C74 %1024.4 hPa16.1 kmCalmClear
7:55 AM-33.6 °C-37.3 °C70 %1024.4 hPa16.1 kmCalmClear
8:15 AM-34.2 °C-37.8 °C71 %1024.4 hPa16.1 kmCalmClear
8:35 AM-33.1 °C-37 °C69 %1024.4 hPa16.1 kmCalmClear
8:55 AM-29.5 °C-32.7 °C75 %1025.1 hPa16.1 kmNE (40°)11.1 km/hClear
9:15 AM-29.4 °C-32.5 °C75 %1025.1 hPa16.1 kmCalmClear
9:55 AM-28.7 °C-31.9 °C75 %1025.1 hPa16.1 kmCalmClear
10:15 AM-27.1 °C-30.1 °C76 %1025.1 hPa16.1 kmCalmClear
10:55 AM-23.6 °C-26.1 °C80 %1024.7 hPa16.1 kmCalmClear
11:15 AM-23.1 °C-25.5 °C81 %1024 hPa16.1 kmNE (40°)5.6 km/hClear
11:55 AM-21.1 °C-23.3 °C83 %1023 hPa16.1 kmCalmClear
12:35 PM-20.1 °C-22.5 °C82 %1022.7 hPa16.1 kmCalmClear
12:55 PM-19 °C-21.2 °C83 %1022.4 hPa16.1 kmCalmClear
1:15 PM-17.2 °C-19.4 °C83 %1022 hPa16.1 kmCalmClear
1:55 PM-14.9 °C-16.9 °C85 %1022 hPa16.1 kmCalmClear
2:15 PM-14.1 °C-16.3 °C84 %1021.3 hPa16.1 kmCalmClear
2:35 PM-11.2 °C-13.9 °C81 %1021.3 hPa16.1 kmCalmClear
2:55 PM-7.6 °C-14.3 °C59 %1021.7 hPa16.1 kmWest (280°)13 km/hClear
3:55 PM-7.5 °C-15.4 °C54 %1021.7 hPa16.1 kmCalmClear
4:15 PM-8.2 °C-15.9 °C55 %1021.7 hPa16.1 kmCalmClear
4:35 PM-9.2 °C-16.2 °C58 %1021.7 hPa16.1 kmWSW (240°)5.6 km/hClear
4:55 PM-9.2 °C-16.6 °C56 %1022 hPa16.1 kmWest (260°)7.4 km/hClear
6:55 PM-22.8 °C-24.9 °C83 %1023 hPa16.1 kmCalmClear
7:15 PM-23.4 °C-25.2 °C86 %1023 hPa16.1 kmCalmClear
7:35 PM-24.7 °C-26.4 °C86 %1023 hPa16.1 kmSE (140°)5.6 km/hClear
9:15 PM-29.7 °C-32.8 °C75 %1023.4 hPa16.1 kmCalmClear
10:15 PM-30 °C-33.3 °C74 %1023.4 hPa16.1 kmCalmClear
10:35 PM-29 °C-32 °C76 %1023.7 hPa16.1 kmCalmClear
10:55 PM-31 °C-33.8 °C77 %1024 hPa16.1 kmCalmClear
11:15 PM-31.3 °C-34.3 °C76 %1023.7 hPa16.1 kmCalmClear
11:35 PM-32.1 °C-35 °C76 %1023.4 hPa16.1 kmCalmClear
11:55 PM-33.6 °C-37.3 °C70 %1023.4 hPa16.1 kmCalmClear
Hourly data recorded from KAXX, located 0 kilometers away from Miami, New Mexico







STORIES FROM OUR PARTNERS